Location: Pedimozza
(42.0500°N, 9.3500°E)
Time: 10:18:01
(UTC+00:00)

NOSS 3-1 (C) - Pass Details

Date: 19 August 2019
Orbit: 775 x 1433 km, 63.4° (Epoch: 01 September)

Event Time Altitude Azimuth Distance (km) Brightness Sun altitude
Rises 22:40:27 0° 321° (NW) 4,030 7.6 -34.3°
Reaches altitude 10° 22:43:03 10° 319° (NW) 3,152 6.8 -34.4°
Enters shadow 22:49:54 60° 267° (W) 1,479 4.3 -34.7°
